Location: La Roche
(47.1375°N, 0.2060°E)
Time: 00:11:12
(UTC+00:00)

Daily predictions for brighter satellites

Satellite Brightness Start Highest point End
(mag) Time Altitude Azimuth Time Altitude Azimuth Time Altitude Azimuth
SL-16 R/B 4.4 01:51:00 21° NNW 01:51:00 21° NNW 01:52:52 10° NNW
Resurs 1-4 Rocket 4.3 02:01:43 10° N 02:03:14 20° N 02:03:14 20° N
Cosmos 1833 Rocket 4.2 02:13:01 32° NE 02:13:01 32° NE 02:16:09 10° NE
CZ-2D R/B 4.1 02:17:13 10° N 02:18:59 21° N 02:18:59 21° N
CENTAUR R/B 4.1 02:27:13 23° ESE 02:27:52 23° ESE 02:32:53 10° ENE
Lacrosse 4 Rocket 4.3 02:30:46 14° NNE 02:32:03 16° NE 02:34:48 10° ENE
Cosmos 2082 Rocket 3.4 02:38:49 35° E 02:38:49 35° E 02:43:39 10° NE
ADEOS II 3.7 02:40:03 10° N 02:42:28 27° N 02:42:28 27° N
CZ-2C R/B 4.0 02:46:14 10° NE 02:50:29 29° E 02:51:09 28° ESE
COSMOS 2406 3.4 03:01:52 66° E 03:01:52 66° E 03:07:07 10° NNE
NOSS 3-2 (A) 4.2 03:01:33 37° SE 03:02:15 38° ESE 03:07:53 10° NE
Cosmos 1605 Rocket 4.1 03:06:05 64° NNW 03:06:05 64° NNW 03:11:18 10° N
ATLAS CENTAUR R/B 2.7 03:08:06 43° NNE 03:08:06 43° NNE 03:11:26 10° NE
Cosmos 2322 Rocket 4.4 03:08:37 10° N 03:13:08 23° NE 03:17:38 10° E
Meteor 1-11 Rocket 3.7 03:11:18 10° N 03:17:20 89° E 03:18:13 67° SSE
Cosmos 1980 Rocket 3.6 03:14:02 10° NNW 03:23:06 24° SSE 03:25:15 10° SSE
USA 308 4.2 03:25:30 34° NNE 03:25:30 34° NNE 03:28:24 10° NE
Cosmos 44 Rocket 3.4 03:26:24 65° NNE 03:26:24 65° NNE 03:30:26 10° NE
ATLAS 5 CENTAUR R/B 4.4 03:24:04 10° NNW 03:26:08 13° NNE 03:28:21 10° NE
PAYLOAD A 4.3 03:22:07 10° NNE 03:26:57 59° ESE 03:28:15 44° SSE
CBERS-1 3.8 03:28:26 10° NNE 03:33:36 86° WNW 03:33:56 78° SW
Cosmos 2056 Rocket 4.0 03:35:21 44° NNW 03:35:21 44° NNW 03:39:28 10° NNE
Cosmos 2173 Rocket 4.1 03:33:19 21° S 03:37:30 72° E 03:43:34 10° NNE
Cosmos 1420 Rocket 4.2 03:38:26 52° NW 03:38:26 52° NW 03:43:04 10° NNE
Cosmos 1346 Rocket 4.5 03:40:21 24° N 03:40:21 24° N 03:42:06 10° N
Cosmos 1515 Rocket 3.8 03:37:57 55° SE 03:38:41 66° E 03:43:08 10° NNE
Cosmos 1461 3.1 03:42:22 62° ESE 03:42:22 62° ESE 03:46:28 10° NE
IRS-1D 4.1 03:38:38 10° N 03:43:03 43° NW 03:43:03 43° NW
ALOS 2.1 03:39:01 10° N 03:43:37 74° WNW 03:43:37 74° WNW
Cosmos 2278 3.6 03:38:09 10° NNW 03:43:51 86° ENE 03:49:30 10° SSE
SL-16 R/B 3.2 03:38:47 10° NNW 03:44:16 47° NE 03:49:42 10° SE
USA 305 3.9 03:44:58 34° N 03:44:58 34° N 03:48:42 10° NE
Resurs 1-4 Rocket 4.3 03:43:40 10° NNW 03:44:18 11° NW 03:44:18 11° NW
IDEFIX/ARIANE 42P 4.3 03:44:08 10° NNW 03:46:26 18° NW 03:46:26 18° NW
FENGYUN 3A 3.7 03:45:36 10° N 03:50:54 58° WNW 03:51:35 54° WSW
METEOR-M 4.2 03:47:45 10° NNE 03:53:08 78° ESE 03:56:56 20° S
CZ-3 R/B 4.5 03:39:43 23° SW 03:53:36 35° S 04:03:12 10° ESE
Cosmos 1833 Rocket 3.6 03:54:43 30° NW 03:54:52 30° NW 03:59:51 10° NNE
IRS-P3 4.4 03:50:28 10° NNE 03:55:49 69° ESE 04:00:46 12° S
Cosmos 1741 Rocket 3.9 03:52:03 10° NNW 03:57:18 86° WSW 04:02:31 10° SSE
RUBIN 8/PSLV 4.4 03:53:20 10° N 03:57:41 72° WNW 03:58:15 63° SW
Cosmos 1331 Rocket 4.3 04:00:12 17° S 04:04:12 64° ESE 04:09:20 10° NNE
MINOTAUR IV R/B 4.4 04:01:49 11° NNW 04:06:05 66° WSW 04:10:30 10° SSE
YAOGAN 6 3.5 04:02:45 10° NNE 04:06:17 48° E 04:09:36 11° S
Lacrosse 4 Rocket 1.4 04:07:07 11° NNW 04:11:18 87° ENE 04:15:45 10° SSE
Lacrosse 5 rocket 4.3 04:09:12 10° SSE 04:11:20 13° ESE 04:13:28 10° E
Cosmos 1484 Rocket 3.0 04:07:31 10° NNE 04:11:30 70° ESE 04:14:53 14° S
Meteor 1-27 Rocket 4.0 04:10:33 33° SW 04:12:48 50° WNW 04:18:33 10° N
ARIANE 5 R/B 2.4 04:08:27 10° NNE 04:13:29 87° WNW 04:18:02 12° SSW
Helios 1B rocket 2.4 04:10:07 10° N 04:14:08 61° WNW 04:15:11 44° SW
CZ-2C R/B 2.5 04:09:05 10° S 04:14:19 74° WSW 04:19:44 10° NNW
Meteor 1-29 4.1 04:13:52 10° NNE 04:17:02 41° E 04:20:11 10° S
CENTAUR R/B 2.5 04:14:26 30° SW 04:17:35 75° NW 04:24:48 10° NE
ERS-1 4.5 04:12:50 10° NNE 04:18:04 86° WNW 04:23:16 10° SSW
CZ-2C R/B 4.0 04:13:46 10° NNE 04:19:23 54° E 04:24:42 10° S
Cosmos 2100 Rocket 4.0 04:15:24 21° SSW 04:19:31 55° WNW 04:25:35 10° N
Cosmos 1110 Rocket 3.9 04:16:34 18° SSW 04:20:29 86° WNW 04:25:42 10° NNE
Cosmos 2333 Rocket 4.0 04:15:58 10° NNW 04:21:00 31° NE 04:25:58 10° ESE
Cosmos 2016 Rocket 4.0 04:14:52 10° S 04:21:15 84° W 04:27:39 10° N
CZ-4C R/B 4.4 04:17:18 10° SSE 04:21:26 53° ENE 04:25:42 10° N
Cosmos 2082 Rocket 2.7 04:20:42 32° W 04:22:36 41° NW 04:27:55 10° NNE
SL-08 R/B 4.4 04:17:45 10° S 04:23:51 88° E 04:30:04 10° N
ADEOS II 4.2 04:22:45 10° NW 04:23:23 11° NW 04:23:23 11° NW
Okean 1 3.4 04:23:13 35° SW 04:24:34 53° WNW 04:28:32 10° N
Cosmos 1452 Rocket 3.6 04:24:11 27° SW 04:26:52 54° WNW 04:32:04 10° NNE
USA 276 3.5 04:26:13 24° S 04:27:11 30° SSE 04:29:54 10° E
Cosmos 1869 Rocket 3.5 04:23:39 10° N 04:28:07 87° WSW 04:32:30 10° S
Cosmos 2360 Rocket 3.2 04:22:48 10° NNW 04:28:16 48° ENE 04:33:41 10° SE
Meteor 1-18 Rocket 4.3 04:22:45 10° S 04:28:25 80° E 04:34:02 10° NNE
CZ-2C R/B 2.9 04:24:14 10° N 04:28:46 38° WNW 04:30:30 28° WSW
USA 307 4.1 04:27:02 21° NW 04:28:54 31° N 04:32:37 10° ENE
Envisat 3.1 04:24:47 10° NNE 04:29:54 80° ESE 04:34:59 10° SSW
Cosmos 968 Rocket 3.8 04:25:13 10° NNW 04:30:23 68° ENE 04:35:29 10° SSE
TIMED 4.4 04:30:21 22° SW 04:33:07 66° WNW 04:37:28 10° NNE
Cosmos 1816 Rocket 4.4 04:28:50 10° NNW 04:34:57 63° W 04:40:58 10° S
Orbus 7S? 4.4 04:33:42 25° WNW 04:35:20 38° NNW 04:41:29 10° NE
Cosmos 489 Rocket 4.4 04:30:39 10° NNW 04:36:55 81° WSW 04:43:08 10° SSE
USA 306 4.2 04:35:54 18° NW 04:38:17 31° N 04:41:57 10° ENE
H-2A R/B 3.0 04:37:11 10° NNE 04:40:50 67° ESE 04:44:30 10° S
SL-24 R/B - RUBIN 2 3.6 04:38:52 24° WSW 04:41:24 60° NW 04:45:44 10° NNE
Cosmos 2061 Rocket 3.9 04:35:27 10° SSW 04:41:36 71° W 04:47:50 10° N
Cosmos 1459 Rocket 4.5 04:40:10 11° SW 04:45:50 40° WNW 04:51:47 10° N
ATLAS CENTAUR R/B 3.4 04:44:03 15° WNW 04:46:04 19° NNW 04:49:32 10° NNE
PSLV R/B 4.0 04:41:46 10° NNE 04:46:05 63° ESE 04:50:17 10° S
COSMOS 2406 4.4 04:43:57 19° W 04:46:17 25° NW 04:50:56 10° N
Cosmos 1733 Rocket 4.0 04:42:44 10° N 04:47:05 52° ENE 04:51:22 10° SSE
X-37B 2.2 04:49:24 17° SSW 04:49:34 17° SSW 04:51:34 10° SSE
Cosmos 1933 Rocket 4.5 04:46:07 10° NNW 04:49:50 27° W 04:53:30 10° SW
CZ-2D R/B 3.7 04:46:25 10° N 04:50:13 44° WNW 04:54:03 10° SW
Meteor 2-4 Rocket 3.7 04:45:07 10° SSW 04:50:51 79° WNW 04:56:27 10° N
NOSS 3-2 (A) 3.8 04:48:59 19° WSW 04:52:54 47° NW 04:59:16 10° NE
NOSS 3-2 (C) 3.3 04:48:33 13° SW 04:53:34 75° NW 05:00:03 10° NE
Cosmos 1975 3.0 04:52:45 10° NNW 04:56:35 46° W 05:00:22 10° SSW
Cosmos 2322 Rocket 2.1 04:52:07 10° NNW 04:57:48 74° WSW 05:03:25 10° SSE
SL-08 R/B 3.7 04:53:50 10° SSW 04:58:13 39° W 05:02:43 10° NNW
Cosmos 2237 4.2 04:53:57 10° NNW 04:59:37 68° WSW 05:05:15 10° SSE
Cosmos 1242 Rocket 2.3 04:57:04 10° NNW 05:00:27 59° W 05:03:46 10° S
CZ-2C R/B 2.7 04:57:11 10° NNE 05:01:00 87° E 05:04:53 10° SSW
Cosmos 2233 Rocket 4.0 04:56:17 10° SSW 05:02:34 69° W 05:08:53 10° N
USA 308 4.2 05:01:01 11° WNW 05:04:32 31° N 05:08:14 10° ENE
Cosmos 1378 4.4 05:04:38 16° WSW 05:06:13 20° WNW 05:09:01 10° NNW
COSMOS 2455 2.9 05:01:12 10° NNW 05:07:16 90° NE 05:13:18 10° SSE
USA 238 DEB 3.6 05:02:59 10° SW 05:09:23 69° NW 05:16:18 10° NE
USA 238 3.6 05:03:05 10° SW 05:09:30 69° NW 05:16:24 10° NE
Cosmos 1805 3.2 05:05:44 10° N 05:09:38 88° E 05:13:30 10° S
Tsikada Rocket 4.2 05:05:04 10° NNW 05:11:03 46° W 05:16:55 10° SSW
SKYMED 2 3.6 05:07:38 10° SSE 05:11:58 88° WSW 05:16:21 10° NNW
ATLAS 5 CENTAUR R/B 3.9 05:07:46 10° NNW 05:12:13 29° NE 05:17:25 10° E
CZ-4B R/B 3.8 05:09:57 10° NNE 05:15:15 77° ESE 05:20:31 10° S
GP-B 4.1 05:13:43 10° SW 05:17:22 25° W 05:21:02 10° NNW
ALOS 4.2 05:18:58 10° NW 05:20:13 11° NW 05:21:29 10° WNW
Cosmos 1733 3.1 05:16:54 10° NNW 05:20:35 61° W 05:24:15 10° S
Cosmos 1461 4.4 05:18:37 11° W 05:21:39 22° NW 05:24:59 10° NNE
USA 305 4.0 05:21:11 10° NW 05:24:58 34° N 05:28:45 10° ENE
USA 290 2.2 05:21:49 10° NNW 05:25:00 63° WSW 05:28:10 10° S
SL-16 R/B 2.9 05:23:14 10° NW 05:28:10 31° WSW 05:33:05 10° SSW
Meteor 1-13 Rocket 4.5 05:23:07 10° S 05:28:41 77° E 05:34:13 10° NNE
Cosmos 1862 Rocket 3.6 05:24:54 10° SSW 05:29:22 77° W 05:33:50 10° N
NOAA 11 4.3 05:24:27 10° N 05:29:51 59° WNW 05:35:11 10° SSW
Cosmos 1766 3.6 05:26:16 10° N 05:30:13 73° ENE 05:34:09 10° SSE
USA 234 3.8 05:26:09 10° ENE 05:32:38 61° SE 05:39:05 10° SW
SJ 16-02 2.5 05:30:53 10° N 05:35:08 46° ENE 05:39:21 10° SE
Cosmos 1908 Rocket 4.3 05:31:27 10° N 05:35:48 60° ENE 05:40:08 10° SSE
